QPF
0.00 0.00 0.00 0.00 0.00 0.00 0.00 0.00 0.00 0.00 0.00 0.00 0.00 0.00 0.00 0.00 0.00 0.00 0.00 0.00 0.00 0.00 0.00 0.00 0.00 0.00 0.00 0.00 0.00 0.01 0.01 0.00 0.00 0.00 0.00 0.00 0.00 0.00 0.00 0.00 0.00 0.00 0.00
0.00 0.00 0.00 0.00 0.00 0.00 0.00 0.00 0.00 0.00 0.00 0.00 0.00 0.00 0.00 0.00 0.00 0.00 0.00 0.00 0.00 0.00 0.00 0.00 0.00 0.00 0.00 0.00 0.01 0.01 0.01 0.00 0.00 0.00 0.00 0.00 0.00 0.00 0.00 0.00 0.00 0.00 0.00
0.00 0.00 0.00 0.00 0.00 0.00 0.00 0.00 0.00 0.00 0.00 0.00 0.00 0.00 0.00 0.00 0.00 0.00 0.00 0.00 0.00 0.00 0.00 0.00 0.00 0.00 0.00 0.00 0.00 0.01 0.00 0.00 0.00 0.00 0.00 0.00 0.00 0.00 0.00 0.00 0.00 0.00 0.00
0.00 0.00 0.00 0.00 0.00 0.00 0.00 0.00 0.00 0.00 0.00 0.00 0.00 0.00 0.00 0.00 0.00 0.00 0.00 0.00 0.00 0.00 0.00 0.00 0.00 0.00 0.00 0.00 0.00 0.00 0.00 0.00 0.00 0.00 0.00 0.00 0.00 0.00 0.00 0.00 0.00 0.00 0.00
0.00 0.00 0.00 0.00 0.00 0.00 0.00 0.00 0.00 0.00 0.00 0.00 0.00 0.00 0.00 0.00 0.00 0.00 0.00 0.00 0.00 0.00 0.00 0.00 0.00 0.00 0.00 0.00 0.00 0.00 0.00 0.00 0.00 0.00 0.00 0.00 0.00 0.00 0.00 0.00 0.00 0.00 0.00
0.00 0.00 0.00 0.00 0.00 0.00 0.00 0.00 0.00 0.00 0.00 0.00 0.00 0.00 0.00 0.00 0.00 0.00 0.00 0.00 0.00 0.00 0.00 0.00 0.00 0.00 0.00 0.00 0.00 0.00 0.00 0.00 0.00 0.00 0.00 0.00 0.00 0.00 0.00 0.00 0.00 0.00 0.00
0.00 0.00 0.00 0.00 0.00 0.00 0.00 0.00 0.00 0.00 0.00 0.00 0.00 0.00 0.00 0.00 0.00 0.00 0.00 0.00 0.00 0.00 0.00 0.00 0.00 0.00 0.00 0.00 0.00 0.00 0.00 0.00 0.00 0.00 0.00 0.00 0.00 0.00 0.00 0.00 0.00 0.00 0.00
0.00 0.00 0.00 0.00 0.00 0.00 0.00 0.00 0.00 0.00 0.00 0.00 0.00 0.00 0.00 0.00 0.00 0.00 0.00 0.00 0.00 0.00 0.00 0.00 0.00 0.00 0.00 0.00 0.00 0.00 0.00 0.00 0.00 0.00 0.00 0.00 0.00 0.00 0.00 0.00 0.00 0.00 0.00
0.00 0.00 0.00 0.00 0.00 0.00 0.00 0.00 0.00 0.00 0.00 0.00 0.00 0.00 0.00 0.00 0.00 0.00 0.00 0.00 0.00 0.00 0.00 0.00 0.00 0.00 0.00 0.00 0.00 0.00 0.00 0.00 0.00 0.00 0.00 0.00 0.00 0.00 0.00 0.00 0.00 0.00 0.00
0.00 0.00 0.00 0.00 0.00 0.00 0.00 0.00 0.00 0.00 0.00 0.00 0.00 0.00 0.00 0.00 0.00 0.00 0.00 0.00 0.00 0.00 0.00 0.00 0.00 0.00 0.00 0.00 0.00 0.00 0.00 0.00 0.00 0.00 0.00 0.00 0.00 0.00 0.00 0.00 0.00 0.00 0.00
0.00 0.00 0.00 0.00 0.00 0.00 0.00 0.00 0.00 0.00 0.00 0.00 0.00 0.00 0.00 0.00 0.00 0.00 0.00 0.00 0.00 0.00 0.00 0.00 0.00 0.00 0.00 0.00 0.00 0.00 0.00 0.00 0.00 0.00 0.00 0.00 0.00 0.00 0.00 0.00 0.00 0.00 0.00
0.00 0.00 0.00 0.00 0.00 0.00 0.00 0.00 0.00 0.00 0.00 0.00 0.00 0.00 0.00 0.00 0.00 0.00 0.00 0.00 0.00 0.00 0.00 0.00 0.00 0.00 0.00 0.00 0.00 0.00 0.00 0.00 0.00 0.00 0.00 0.00 0.00 0.00 0.00 0.00 0.00 0.00 0.00
0.00 0.00 0.00 0.00 0.00 0.00 0.00 0.00 0.00 0.00 0.00 0.00 0.00 0.00 0.00 0.00 0.00 0.00 0.00 0.00 0.00 0.00 0.00 0.00 0.00 0.00 0.00 0.00 0.00 0.00 0.00 0.00 0.00 0.00 0.00 0.00 0.00 0.00 0.00 0.00 0.00 0.00 0.00
0.00 0.00 0.00 0.00 0.00 0.00 0.00 0.00 0.00 0.00 0.00 0.00 0.00 0.00 0.00 0.00 0.00 0.00 0.00 0.00 0.00 0.00 0.00 0.00 0.00 0.00 0.00 0.00 0.00 0.00 0.00 0.00 0.00 0.00 0.00 0.00 0.00 0.00 0.00 0.00 0.00 0.00 0.00
0.00 0.00 0.00 0.00 0.00 0.00 0.00 0.00 0.00 0.00 0.00 0.00 0.00 0.00 0.00 0.00 0.00 0.00 0.00 0.00 0.00 0.00 0.00 0.00 0.00 0.00 0.00 0.00 0.00 0.00 0.00 0.00 0.00 0.00 0.00 0.00 0.00 0.00 0.00 0.00 0.00 0.00 0.00
0.00 0.00 0.00 0.00 0.00 0.00 0.00 0.00 0.00 0.00 0.00 0.00 0.00 0.00 0.00 0.00 0.00 0.00 0.00 0.00 0.00 0.00 0.00 0.00 0.00 0.00 0.00 0.00 0.00 0.00 0.00 0.00 0.00 0.00 0.00 0.00 0.00 0.00 0.00 0.00 0.00 0.00 0.00
0.00 0.00 0.00 0.00 0.00 0.00 0.00 0.00 0.00 0.00 0.00 0.00 0.00 0.00 0.00 0.00 0.00 0.00 0.00 0.00 0.00 0.00 0.00 0.00 0.00 0.00 0.00 0.00 0.00 0.00 0.00 0.00 0.00 0.00 0.00 0.00 0.00 0.00 0.00 0.00 0.00 0.00 0.00
0.00 0.00 0.00 0.00 0.00 0.00 0.00 0.00 0.00 0.00 0.00 0.00 0.00 0.00 0.00 0.00 0.00 0.00 0.00 0.00 0.00 0.00 0.00 0.00 0.00 0.00 0.00 0.00 0.00 0.00 0.00 0.00 0.00 0.00 0.00 0.00 0.00 0.00 0.00 0.00 0.00 0.00 0.00
0.00 0.00 0.00 0.00 0.00 0.00 0.00 0.00 0.00 0.00 0.00 0.00 0.00 0.00 0.00 0.00 0.00 0.00 0.00 0.00 0.00 0.00 0.00 0.00 0.00 0.00 0.00 0.00 0.00 0.00 0.00 0.00 0.00 0.00 0.00 0.00 0.00 0.00 0.00 0.00 0.00 0.00 0.00
0.00 0.00 0.00 0.00 0.00 0.00 0.00 0.00 0.00 0.00 0.00 0.00 0.00 0.00 0.00 0.00 0.00 0.00 0.00 0.00 0.00 0.00 0.00 0.00 0.00 0.00 0.00 0.00 0.00 0.00 0.00 0.00 0.00 0.00 0.00 0.00 0.00 0.00 0.00 0.00 0.00 0.00 0.00
0.00 0.00 0.00 0.00 0.00 0.00 0.00 0.00 0.00 0.00 0.00 0.00 0.00 0.00 0.00 0.00 0.00 0.00 0.00 0.00 0.00 0.00 0.00 0.00 0.00 0.00 0.00 0.00 0.00 0.00 0.00 0.00 0.00 0.00 0.00 0.00 0.00 0.00 0.00 0.00 0.00 0.00 0.00
0.00 0.00 0.00 0.00 0.00 0.00 0.00 0.00 0.00 0.00 0.00 0.00 0.00 0.00 0.00 0.00 0.00 0.00 0.00 0.00 0.00 0.00 0.00 0.00 0.00 0.00 0.00 0.00 0.00 0.00 0.00 0.00 0.00 0.00 0.00 0.00 0.00 0.00 0.00 0.00 0.00 0.00 0.00
0.00 0.00 0.00 0.00 0.00 0.00 0.00 0.00 0.01 0.01 0.01 0.01 0.00 0.00 0.00 0.00 0.00 0.00 0.00 0.00 0.00 0.00 0.00 0.00 0.00 0.00 0.00 0.00 0.00 0.00 0.00 0.00 0.00 0.00 0.00 0.00 0.00 0.00 0.00 0.00 0.00 0.00 0.00
0.00 0.00 0.00 0.00 0.00 0.00 0.00 0.00 0.01 0.02 0.02 0.01 0.01 0.01 0.01 0.00 0.00 0.00 0.00 0.01 0.00 0.00 0.00 0.00 0.00 0.00 0.00 0.00 0.00 0.00 0.00 0.00 0.00 0.00 0.00 0.00 0.00 0.00 0.00 0.00 0.00 0.00 0.00
0.00 0.00 0.00 0.00 0.00 0.00 0.00 0.00 0.01 0.02 0.02 0.02 0.01 0.01 0.01 0.01 0.01 0.01 0.02 0.02 0.01 0.01 0.00 0.00 0.01 0.01 0.01 0.01 0.01 0.00 0.00 0.00 0.00 0.00 0.00 0.00 0.00 0.00 0.00 0.00 0.00 0.00 0.00
0.00 0.00 0.00 0.00 0.00 0.00 0.00 0.00 0.00 0.01 0.02 0.01 0.01 0.01 0.01 0.01 0.01 0.02 0.04 0.04 0.03 0.01 0.01 0.01 0.01 0.02 0.02 0.01 0.01 0.01 0.00 0.01 0.00 0.00 0.00 0.00 0.00 0.00 0.00 0.00 0.00 0.00 0.00
MSLP
1017.46 1017.88 1018.29 1018.68 1019.08 1019.47 1019.86 1020.25 1020.61 1020.95 1021.23 1021.47 1021.66 1021.80 1021.89 1021.96 1022.00 1022.03 1022.04 1022.04 1022.03 1022.01 1021.99 1021.97 1021.97 1021.99 1022.04 1022.12 1022.21 1022.32 1022.41 1022.50 1022.56 1022.59 1022.60 1022.60 1022.60 1022.59 1022.57 1022.54 1022.49 1022.41 1022.30
1017.15 1017.59 1018.01 1018.43 1018.84 1019.26 1019.67 1020.08 1020.47 1020.84 1021.17 1021.45 1021.69 1021.87 1022.01 1022.11 1022.17 1022.19 1022.18 1022.16 1022.11 1022.06 1022.01 1021.99 1021.99 1022.02 1022.09 1022.19 1022.32 1022.44 1022.56 1022.67 1022.74 1022.80 1022.83 1022.86 1022.88 1022.89 1022.90 1022.89 1022.87 1022.81 1022.72
1016.78 1017.24 1017.69 1018.14 1018.59 1019.04 1019.49 1019.93 1020.35 1020.75 1021.12 1021.45 1021.74 1021.98 1022.17 1022.30 1022.38 1022.41 1022.39 1022.34 1022.26 1022.18 1022.11 1022.06 1022.06 1022.10 1022.19 1022.31 1022.45 1022.61 1022.75 1022.87 1022.96 1023.03 1023.08 1023.11 1023.13 1023.16 1023.17 1023.18 1023.17 1023.14 1023.08
1016.40 1016.88 1017.37 1017.86 1018.35 1018.85 1019.33 1019.80 1020.25 1020.68 1021.08 1021.45 1021.78 1022.07 1022.31 1022.49 1022.61 1022.66 1022.65 1022.59 1022.50 1022.39 1022.30 1022.24 1022.22 1022.26 1022.35 1022.49 1022.65 1022.82 1022.98 1023.12 1023.22 1023.29 1023.34 1023.37 1023.38 1023.40 1023.41 1023.41 1023.40 1023.39 1023.35
1016.06 1016.57 1017.09 1017.62 1018.16 1018.69 1019.20 1019.69 1020.15 1020.59 1021.00 1021.39 1021.76 1022.09 1022.39 1022.62 1022.80 1022.89 1022.91 1022.87 1022.79 1022.68 1022.57 1022.50 1022.47 1022.50 1022.59 1022.73 1022.90 1023.08 1023.25 1023.39 1023.50 1023.58 1023.62 1023.63 1023.63 1023.62 1023.61 1023.59 1023.57 1023.56 1023.53
1015.82 1016.34 1016.89 1017.46 1018.03 1018.58 1019.10 1019.58 1020.03 1020.45 1020.85 1021.24 1021.62 1021.99 1022.33 1022.63 1022.87 1023.03 1023.11 1023.12 1023.07 1022.99 1022.89 1022.82 1022.78 1022.81 1022.88 1023.01 1023.18 1023.36 1023.53 1023.68 1023.80 1023.87 1023.90 1023.90 1023.88 1023.84 1023.79 1023.75 1023.70 1023.67 1023.65
1015.70 1016.21 1016.77 1017.35 1017.93 1018.49 1018.99 1019.44 1019.85 1020.22 1020.58 1020.94 1021.32 1021.70 1022.08 1022.44 1022.76 1023.01 1023.18 1023.27 1023.29 1023.25 1023.19 1023.13 1023.09 1023.11 1023.17 1023.29 1023.44 1023.62 1023.79 1023.94 1024.06 1024.14 1024.17 1024.17 1024.13 1024.06 1023.98 1023.90 1023.83 1023.77 1023.73
1015.70 1016.18 1016.72 1017.29 1017.86 1018.38 1018.84 1019.24 1019.58 1019.88 1020.18 1020.49 1020.83 1021.22 1021.63 1022.04 1022.43 1022.78 1023.05 1023.23 1023.34 1023.38 1023.37 1023.35 1023.33 1023.35 1023.41 1023.51 1023.65 1023.81 1023.98 1024.14 1024.27 1024.36 1024.40 1024.40 1024.35 1024.28 1024.18 1024.07 1023.97 1023.89 1023.82
1015.79 1016.22 1016.71 1017.24 1017.76 1018.23 1018.63 1018.95 1019.21 1019.43 1019.64 1019.89 1020.18 1020.55 1020.96 1021.41 1021.87 1022.30 1022.67 1022.96 1023.16 1023.29 1023.36 1023.39 1023.41 1023.45 1023.51 1023.61 1023.74 1023.90 1024.07 1024.24 1024.38 1024.49 1024.55 1024.57 1024.54 1024.47 1024.37 1024.26 1024.14 1024.03 1023.94
1015.93 1016.28 1016.70 1017.16 1017.61 1018.01 1018.33 1018.57 1018.74 1018.87 1019.01 1019.18 1019.42 1019.74 1020.14 1020.60 1021.10 1021.58 1022.03 1022.41 1022.71 1022.93 1023.09 1023.19 1023.27 1023.35 1023.44 1023.55 1023.69 1023.86 1024.04 1024.22 1024.38 1024.52 1024.61 1024.66 1024.66 1024.61 1024.53 1024.43 1024.31 1024.20 1024.10
1016.10 1016.35 1016.67 1017.04 1017.40 1017.72 1017.96 1018.13 1018.22 1018.27 1018.33 1018.43 1018.60 1018.87 1019.23 1019.68 1020.17 1020.68 1021.17 1021.61 1021.99 1022.30 1022.54 1022.73 1022.89 1023.03 1023.17 1023.32 1023.49 1023.68 1023.88 1024.08 1024.27 1024.44 1024.57 1024.65 1024.69 1024.68 1024.62 1024.55 1024.45 1024.36 1024.28
1016.29 1016.41 1016.63 1016.89 1017.16 1017.39 1017.56 1017.66 1017.69 1017.68 1017.68 1017.71 1017.82 1018.02 1018.32 1018.71 1019.16 1019.65 1020.14 1020.61 1021.04 1021.42 1021.75 1022.03 1022.27 1022.50 1022.71 1022.93 1023.15 1023.38 1023.62 1023.85 1024.07 1024.26 1024.42 1024.54 1024.61 1024.64 1024.62 1024.58 1024.52 1024.46 1024.41
1016.51 1016.51 1016.60 1016.75 1016.92 1017.07 1017.17 1017.21 1017.20 1017.16 1017.11 1017.09 1017.14 1017.26 1017.48 1017.78 1018.16 1018.58 1019.03 1019.49 1019.93 1020.36 1020.75 1021.12 1021.47 1021.79 1022.11 1022.41 1022.71 1022.99 1023.27 1023.54 1023.78 1024.00 1024.18 1024.33 1024.42 1024.48 1024.50 1024.50 1024.48 1024.47 1024.46
1016.78 1016.65 1016.63 1016.66 1016.73 1016.81 1016.85 1016.85 1016.81 1016.74 1016.67 1016.61 1016.60 1016.65 1016.77 1016.96 1017.22 1017.55 1017.92 1018.33 1018.75 1019.20 1019.65 1020.09 1020.54 1020.97 1021.39 1021.79 1022.17 1022.53 1022.86 1023.16 1023.44 1023.67 1023.87 1024.02 1024.14 1024.22 1024.26 1024.29 1024.32 1024.35 1024.39
1017.13 1016.89 1016.75 1016.67 1016.65 1016.64 1016.63 1016.60 1016.54 1016.46 1016.36 1016.28 1016.21 1016.19 1016.21 1016.29 1016.42 1016.63 1016.89 1017.22 1017.60 1018.04 1018.51 1019.02 1019.55 1020.08 1020.60 1021.10 1021.56 1021.99 1022.38 1022.73 1023.03 1023.28 1023.49 1023.65 1023.77 1023.85 1023.92 1023.97 1024.03 1024.10 1024.20
1017.55 1017.22 1016.97 1016.80 1016.68 1016.59 1016.52 1016.45 1016.37 1016.28 1016.17 1016.06 1015.95 1015.86 1015.79 1015.76 1015.77 1015.85 1016.00 1016.23 1016.55 1016.95 1017.43 1017.97 1018.55 1019.16 1019.76 1020.34 1020.89 1021.39 1021.83 1022.22 1022.54 1022.81 1023.03 1023.20 1023.33 1023.42 1023.50 1023.57 1023.65 1023.76 1023.90
1018.01 1017.61 1017.27 1017.01 1016.80 1016.63 1016.49 1016.38 1016.26 1016.15 1016.03 1015.90 1015.76 1015.61 1015.47 1015.34 1015.25 1015.22 1015.26 1015.40 1015.64 1015.99 1016.44 1016.98 1017.58 1018.23 1018.88 1019.52 1020.12 1020.67 1021.17 1021.59 1021.96 1022.25 1022.49 1022.68 1022.83 1022.93 1023.02 1023.11 1023.21 1023.34 1023.52
1018.44 1017.99 1017.59 1017.25 1016.95 1016.69 1016.48 1016.30 1016.14 1015.99 1015.85 1015.69 1015.53 1015.35 1015.16 1014.97 1014.80 1014.68 1014.64 1014.69 1014.85 1015.14 1015.55 1016.05 1016.64 1017.29 1017.95 1018.61 1019.24 1019.82 1020.35 1020.82 1021.23 1021.57 1021.85 1022.08 1022.26 1022.40 1022.52 1022.63 1022.75 1022.90 1023.10
1018.77 1018.30 1017.85 1017.43 1017.05 1016.70 1016.40 1016.14 1015.92 1015.72 1015.54 1015.37 1015.18 1014.98 1014.76 1014.54 1014.33 1014.16 1014.06 1014.05 1014.15 1014.37 1014.71 1015.16 1015.70 1016.30 1016.93 1017.58 1018.21 1018.80 1019.36 1019.87 1020.33 1020.73 1021.09 1021.38 1021.62 1021.82 1021.98 1022.13 1022.28 1022.45 1022.66
1018.94 1018.46 1017.97 1017.49 1017.02 1016.59 1016.19 1015.84 1015.53 1015.27 1015.05 1014.84 1014.63 1014.42 1014.20 1013.98 1013.76 1013.57 1013.44 1013.39 1013.44 1013.60 1013.87 1014.24 1014.70 1015.23 1015.81 1016.41 1017.01 1017.60 1018.18 1018.73 1019.25 1019.73 1020.16 1020.55 1020.88 1021.16 1021.39 1021.59 1021.78 1021.98 1022.21
1018.92 1018.43 1017.92 1017.38 1016.83 1016.30 1015.80 1015.34 1014.94 1014.60 1014.32 1014.07 1013.85 1013.63 1013.42 1013.21 1013.00 1012.82 1012.69 1012.62 1012.63 1012.74 1012.94 1013.24 1013.61 1014.06 1014.55 1015.09 1015.64 1016.22 1016.81 1017.40 1017.98 1018.55 1019.09 1019.58 1020.02 1020.40 1020.72 1020.99 1021.24 1021.47 1021.72
1018.72 1018.23 1017.68 1017.08 1016.46 1015.83 1015.22 1014.66 1014.16 1013.73 1013.37 1013.07 1012.82 1012.59 1012.39 1012.19 1012.01 1011.86 1011.74 1011.67 1011.66 1011.73 1011.88 1012.10 1012.40 1012.76 1013.17 1013.64 1014.15 1014.71 1015.30 1015.93 1016.58 1017.23 1017.87 1018.48 1019.03 1019.52 1019.94 1020.29 1020.60 1020.88 1021.15
1018.40 1017.89 1017.29 1016.64 1015.93 1015.21 1014.49 1013.83 1013.22 1012.70 1012.26 1011.90 1011.60 1011.35 1011.14 1010.95 1010.79 1010.65 1010.55 1010.49 1010.49 1010.53 1010.64 1010.81 1011.05 1011.34 1011.70 1012.11 1012.59 1013.13 1013.73 1014.39 1015.09 1015.82 1016.55 1017.26 1017.91 1018.51 1019.02 1019.47 1019.84 1020.18 1020.49
1018.00 1017.45 1016.81 1016.08 1015.30 1014.49 1013.68 1012.91 1012.21 1011.59 1011.06 1010.62 1010.26 1009.97 1009.73 1009.53 1009.37 1009.24 1009.15 1009.10 1009.10 1009.14 1009.24 1009.39 1009.59 1009.85 1010.18 1010.57 1011.03 1011.56 1012.18 1012.86 1013.61 1014.39 1015.19 1015.97 1016.71 1017.38 1017.98 1018.50 1018.95 1019.35 1019.71
1017.60 1016.98 1016.27 1015.48 1014.62 1013.74 1012.85 1011.99 1011.20 1010.49 1009.87 1009.35 1008.91 1008.55 1008.25 1008.01 1007.83 1007.69 1007.59 1007.55 1007.55 1007.61 1007.71 1007.87 1008.09 1008.36 1008.69 1009.08 1009.55 1010.10 1010.73 1011.44 1012.21 1013.02 1013.86 1014.68 1015.47 1016.20 1016.86 1017.44 1017.96 1018.41 1018.83
1017.19 1016.49 1015.71 1014.85 1013.93 1012.98 1012.03 1011.11 1010.24 1009.45 1008.75 1008.13 1007.61 1007.17 1006.79 1006.49 1006.25 1006.07 1005.96 1005.91 1005.93 1006.00 1006.14 1006.34 1006.60 1006.91 1007.29 1007.73 1008.23 1008.81 1009.46 1010.18 1010.97 1011.79 1012.62 1013.46 1014.26 1015.01 1015.70 1016.33 1016.90 1017.42 1017.90
Thickness
5680 5677 5674 5670 5668 5666 5664 5661 5658 5657 5656 5655 5655 5656 5656 5655 5655 5655 5654 5655 5656 5659 5660 5661 5662 5662 5662 5662 5662 5662 5661 5661 5661 5662 5664 5665 5666 5668 5669 5670 5671 5672 5673
5676 5672 5668 5666 5663 5661 5658 5655 5652 5650 5648 5648 5648 5649 5649 5648 5647 5647 5647 5647 5648 5650 5652 5654 5654 5654 5654 5653 5653 5653 5652 5652 5652 5652 5653 5655 5656 5657 5658 5659 5661 5662 5664
5672 5667 5663 5661 5658 5656 5652 5648 5645 5642 5640 5640 5640 5640 5641 5640 5640 5639 5639 5639 5639 5641 5642 5643 5644 5645 5644 5644 5644 5644 5643 5643 5643 5643 5644 5645 5645 5646 5647 5648 5650 5652 5654
5666 5662 5658 5655 5652 5650 5646 5642 5638 5635 5633 5632 5631 5631 5631 5631 5631 5631 5631 5631 5631 5631 5631 5632 5633 5634 5634 5634 5634 5634 5634 5634 5633 5634 5634 5635 5635 5636 5636 5638 5640 5642 5644
5658 5655 5651 5648 5645 5642 5639 5635 5632 5629 5625 5624 5622 5622 5622 5621 5621 5621 5621 5622 5622 5622 5622 5622 5623 5623 5624 5624 5624 5624 5624 5624 5623 5624 5624 5624 5625 5625 5626 5627 5629 5631 5633
5650 5646 5643 5640 5637 5633 5630 5627 5624 5622 5619 5616 5614 5611 5611 5611 5611 5611 5612 5611 5612 5612 5612 5613 5614 5614 5614 5614 5614 5614 5614 5614 5613 5613 5613 5614 5614 5615 5616 5617 5619 5621 5623
5641 5636 5633 5630 5628 5625 5622 5619 5617 5614 5610 5608 5601 5596 5598 5600 5601 5602 5602 5601 5601 5601 5602 5603 5604 5604 5605 5604 5604 5605 5604 5603 5601 5601 5602 5603 5603 5604 5605 5607 5608 5610 5612
5631 5627 5623 5620 5617 5614 5611 5610 5610 5606 5604 5603 5596 5585 5582 5584 5589 5593 5592 5591 5592 5592 5592 5592 5593 5594 5595 5594 5594 5593 5593 5592 5591 5590 5591 5592 5593 5594 5595 5596 5598 5599 5600
5618 5616 5613 5610 5607 5605 5602 5601 5602 5602 5599 5597 5598 5591 5581 5580 5579 5581 5583 5583 5583 5582 5582 5582 5582 5584 5585 5585 5584 5583 5582 5581 5580 5580 5581 5581 5583 5584 5585 5586 5587 5588 5589
5605 5603 5601 5599 5596 5594 5592 5591 5591 5592 5593 5590 5589 5591 5590 5588 5577 5570 5571 5574 5574 5574 5573 5573 5573 5574 5575 5575 5574 5572 5571 5570 5569 5570 5570 5571 5573 5574 5575 5576 5577 5577 5578
5592 5589 5588 5587 5585 5584 5582 5580 5579 5580 5581 5582 5582 5581 5578 5578 5580 5569 5562 5562 5563 5566 5566 5565 5565 5564 5565 5565 5564 5562 5561 5559 5559 5558 5559 5560 5562 5563 5565 5565 5566 5566 5567
5576 5575 5574 5572 5572 5571 5571 5569 5569 5568 5568 5570 5571 5573 5573 5569 5569 5569 5561 5555 5554 5556 5558 5558 5557 5555 5555 5555 5554 5553 5551 5549 5548 5548 5548 5549 5550 5552 5553 5554 5555 5555 5555
5558 5559 5559 5558 5557 5557 5557 5557 5557 5557 5557 5557 5559 5561 5564 5567 5567 5566 5560 5551 5548 5547 5547 5548 5549 5547 5546 5546 5545 5544 5542 5540 5539 5538 5537 5538 5539 5540 5541 5542 5543 5544 5544
5535 5539 5541 5541 5541 5541 5542 5542 5542 5543 5544 5544 5545 5547 5550 5554 5555 5556 5553 5545 5537 5533 5536 5538 5539 5539 5538 5536 5535 5534 5533 5531 5529 5528 5527 5527 5528 5529 5529 5530 5531 5532 5532
5511 5514 5518 5521 5522 5523 5523 5524 5525 5526 5528 5529 5530 5531 5534 5538 5541 5543 5543 5542 5538 5526 5528 5530 5530 5531 5529 5527 5525 5524 5524 5522 5521 5519 5518 5518 5518 5518 5518 5519 5519 5520 5521
5486 5489 5492 5496 5500 5502 5503 5504 5506 5508 5510 5512 5514 5515 5518 5520 5523 5527 5529 5530 5531 5532 5528 5527 5524 5524 5521 5518 5516 5514 5514 5512 5511 5510 5509 5508 5508 5507 5507 5508 5508 5508 5509
5462 5465 5467 5471 5475 5479 5481 5483 5485 5487 5491 5494 5496 5499 5503 5503 5506 5509 5512 5514 5515 5516 5517 5512 5513 5512 5508 5507 5505 5503 5502 5502 5501 5500 5499 5498 5497 5497 5497 5496 5497 5497 5497
5438 5441 5444 5447 5451 5454 5458 5461 5463 5466 5469 5474 5477 5481 5486 5486 5490 5492 5494 5498 5499 5500 5501 5496 5497 5497 5496 5497 5494 5491 5491 5491 5490 5489 5488 5487 5487 5486 5486 5486 5485 5485 5485
5412 5416 5419 5423 5427 5430 5434 5438 5442 5445 5449 5453 5457 5463 5468 5468 5474 5476 5478 5482 5484 5482 5482 5482 5485 5485 5485 5483 5479 5477 5476 5477 5477 5477 5477 5477 5476 5476 5476 5475 5475 5474 5474
5386 5390 5394 5398 5402 5406 5411 5415 5419 5424 5429 5434 5438 5444 5449 5453 5458 5459 5462 5466 5466 5464 5464 5466 5468 5471 5472 5471 5467 5465 5464 5464 5464 5464 5466 5466 5466 5465 5465 5465 5464 5464 5463
5359 5364 5368 5373 5378 5382 5387 5391 5396 5402 5407 5414 5420 5425 5431 5435 5441 5443 5447 5450 5449 5450 5450 5452 5454 5456 5460 5460 5462 5461 5459 5453 5451 5454 5454 5455 5454 5454 5454 5454 5454 5453 5452
5332 5336 5341 5345 5352 5358 5363 5368 5373 5378 5385 5392 5400 5406 5412 5417 5423 5427 5432 5436 5437 5438 5441 5444 5448 5452 5459 5461 5458 5453 5448 5439 5441 5448 5443 5444 5443 5444 5444 5444 5444 5442 5441
5304 5308 5313 5317 5324 5333 5338 5343 5348 5352 5360 5369 5378 5385 5392 5400 5404 5408 5413 5418 5424 5430 5434 5436 5440 5450 5451 5452 5447 5442 5442 5444 5450 5448 5438 5437 5435 5435 5434 5433 5432 5431 5429
5273 5278 5284 5289 5295 5307 5312 5315 5319 5323 5333 5345 5355 5363 5371 5381 5386 5389 5392 5398 5408 5417 5424 5425 5432 5440 5436 5436 5436 5439 5438 5431 5428 5433 5435 5430 5427 5423 5420 5419 5418 5418 5416
5245 5248 5252 5258 5264 5277 5285 5286 5288 5291 5302 5318 5330 5340 5348 5359 5370 5369 5371 5381 5390 5401 5407 5410 5416 5417 5418 5421 5421 5416 5415 5412 5411 5418 5422 5420 5416 5408 5404 5403 5403 5403 5401
5216 5220 5226 5232 5234 5244 5256 5258 5259 5259 5272 5289 5304 5315 5326 5337 5347 5347 5351 5361 5373 5387 5387 5391 5396 5400 5403 5405 5408 5412 5413 5408 5407 5406 5411 5406 5402 5395 5386 5387 5386 5386 5385